Total_Precipitation_Accumulation
0.87 0.84 0.77 0.77 0.71 0.77 0.87 0.94 0.89 0.80 0.73 0.67 0.63 0.68 0.71 0.75 0.79 0.84 0.90 0.84 0.92 1.11 1.25 1.25 1.08 0.91 0.86 0.90 0.91 0.88 0.97 1.03 1.00 1.06 1.05 0.94 0.78 0.63 0.51 0.51 0.53 0.50 0.54
0.94 0.90 0.85 0.86 0.83 0.84 0.96 0.94 0.85 0.88 0.86 0.75 0.64 0.64 0.70 0.77 0.83 0.79 0.82 0.91 0.91 0.93 1.17 1.37 1.37 1.13 1.08 1.01 1.03 1.03 1.08 1.05 0.96 0.97 0.97 0.93 0.83 0.72 0.59 0.53 0.54 0.50 0.50
0.83 0.86 0.87 0.87 0.91 0.99 1.04 1.06 0.90 0.89 0.83 0.74 0.68 0.64 0.62 0.65 0.69 0.74 0.72 0.69 0.75 0.83 1.01 1.31 1.49 1.35 1.27 1.22 1.13 1.10 1.15 1.08 0.97 0.92 0.87 0.78 0.74 0.68 0.61 0.59 0.58 0.58 0.57
0.77 0.90 0.90 0.88 0.91 1.03 1.11 1.14 1.04 0.97 0.89 0.84 0.81 0.74 0.67 0.68 0.66 0.74 0.73 0.64 0.74 0.71 0.85 0.96 1.14 1.27 1.29 1.29 1.26 1.17 1.09 0.96 0.84 0.87 0.82 0.69 0.61 0.54 0.52 0.57 0.59 0.61 0.61
0.83 1.00 1.10 1.11 1.11 1.12 1.10 1.06 1.10 1.06 1.00 0.98 0.93 0.89 0.80 0.72 0.74 0.71 0.73 0.73 0.68 0.72 0.81 0.64 0.69 0.78 0.98 1.15 1.27 1.31 1.16 0.98 0.83 0.84 0.85 0.65 0.50 0.45 0.42 0.53 0.54 0.53 0.55
1.18 1.32 1.32 1.39 1.46 1.33 1.27 1.21 1.22 1.16 1.07 1.09 1.03 0.92 0.83 0.73 0.78 0.83 0.82 0.80 0.75 0.70 0.79 0.68 0.60 0.52 0.62 0.86 1.11 1.33 1.29 1.13 0.93 0.83 0.83 0.68 0.50 0.40 0.38 0.44 0.49 0.46 0.48
1.52 1.72 1.69 1.73 1.75 1.61 1.56 1.62 1.80 1.74 1.47 1.24 1.25 1.07 0.89 0.74 0.82 0.86 0.83 0.85 0.83 0.90 0.97 0.87 0.69 0.62 0.52 0.55 0.67 1.01 1.25 1.20 1.12 0.97 0.91 0.81 0.60 0.41 0.36 0.37 0.44 0.44 0.44
1.44 1.57 1.82 1.91 1.83 1.84 1.95 1.98 2.28 2.41 1.98 1.57 1.55 1.62 1.35 1.15 0.86 0.73 0.77 0.78 0.86 1.05 1.07 0.90 0.78 0.67 0.59 0.60 0.43 0.56 0.88 1.12 1.21 1.17 1.08 0.95 0.75 0.52 0.38 0.34 0.40 0.45 0.47
1.41 1.51 1.66 1.82 1.82 1.89 1.97 2.08 2.40 2.83 2.58 2.07 1.84 2.00 1.69 1.48 1.29 0.90 0.72 0.74 0.85 1.03 1.15 1.09 1.01 0.89 0.74 0.76 0.66 0.48 0.49 0.69 1.07 1.32 1.31 1.15 0.92 0.66 0.48 0.42 0.42 0.49 0.50
1.30 1.37 1.51 1.64 1.76 1.78 1.91 2.01 2.12 2.57 2.87 2.56 2.26 1.93 1.60 1.52 1.57 1.35 0.95 0.85 0.91 0.96 1.04 1.05 1.05 1.12 1.01 0.93 0.84 0.57 0.45 0.45 0.78 1.22 1.47 1.44 1.18 0.94 0.76 0.62 0.55 0.54 0.55
1.40 1.39 1.53 1.60 1.61 1.66 1.76 2.09 2.35 2.60 2.77 2.70 2.59 2.42 2.18 1.86 1.47 1.53 1.47 1.18 1.07 0.99 1.02 1.07 1.11 1.14 1.14 1.11 1.17 0.83 0.55 0.48 0.55 0.95 1.43 1.70 1.56 1.27 1.07 0.91 0.76 0.68 0.63
1.49 1.53 1.59 1.59 1.56 1.59 1.69 1.91 2.19 2.40 2.71 2.87 2.75 2.53 2.37 2.20 1.94 1.77 1.56 1.45 1.39 1.16 1.10 1.11 1.07 1.13 1.21 1.29 1.27 1.21 0.76 0.49 0.45 0.61 1.00 1.42 1.64 1.54 1.35 1.22 1.05 0.94 0.85
1.37 1.41 1.52 1.64 1.72 1.74 1.85 2.02 2.16 2.07 2.30 2.67 2.65 2.48 2.34 2.09 2.04 2.07 1.90 1.62 1.45 1.15 1.08 1.07 1.04 1.15 1.18 1.20 1.39 1.54 1.00 0.64 0.49 0.55 0.66 0.88 1.16 1.41 1.55 1.54 1.44 1.32 1.20
1.33 1.27 1.32 1.43 1.57 1.73 1.78 1.83 1.84 1.81 1.94 2.18 2.26 2.41 2.48 2.21 2.04 1.91 1.82 1.84 1.59 1.34 1.18 1.07 0.99 1.02 1.08 1.14 1.35 1.51 1.09 0.83 0.58 0.52 0.55 0.65 0.77 0.89 1.12 1.33 1.54 1.62 1.59
1.10 1.02 1.02 1.07 1.15 1.23 1.31 1.46 1.55 1.66 1.71 1.83 1.98 2.10 2.24 2.33 2.22 1.97 1.88 1.83 1.77 1.58 1.38 1.27 1.14 0.97 1.08 1.18 1.38 1.21 1.08 1.03 0.80 0.62 0.56 0.58 0.64 0.67 0.74 0.78 0.92 1.12 1.35
1.01 0.94 0.90 0.86 0.83 0.81 0.85 1.03 1.22 1.34 1.45 1.61 1.80 1.93 1.94 1.99 2.17 2.12 1.93 1.90 1.79 1.63 1.50 1.33 1.24 1.11 1.26 1.20 1.34 1.16 1.18 1.25 0.92 0.71 0.61 0.60 0.58 0.53 0.52 0.51 0.49 0.52 0.60
1.00 0.98 0.89 0.82 0.89 0.89 0.85 0.91 0.96 1.02 1.10 1.25 1.40 1.53 1.68 1.93 2.21 2.23 2.18 2.05 1.91 1.74 1.50 1.36 1.16 1.09 1.37 1.46 1.38 1.24 1.22 1.20 0.97 0.85 0.70 0.64 0.61 0.56 0.51 0.46 0.44 0.40 0.40
0.67 0.76 0.84 0.79 0.78 0.80 0.82 0.88 0.90 0.94 0.97 1.05 1.15 1.27 1.44 1.74 2.07 2.29 2.37 2.27 2.11 1.94 1.78 1.63 1.31 1.07 1.19 1.51 1.64 1.58 1.35 1.18 1.06 1.00 0.87 0.75 0.69 0.62 0.56 0.53 0.50 0.47 0.43
0.50 0.54 0.63 0.64 0.73 0.80 0.83 0.85 0.87 0.91 0.93 1.02 1.16 1.21 1.27 1.47 1.66 1.87 2.06 2.18 2.16 2.13 2.08 1.84 1.54 1.28 1.22 1.34 1.58 1.61 1.53 1.48 1.27 1.20 1.20 1.07 0.93 0.83 0.72 0.62 0.59 0.54 0.48
0.52 0.58 0.70 0.74 0.70 0.68 0.73 0.84 0.88 0.84 0.83 0.87 0.96 1.05 1.15 1.20 1.35 1.49 1.60 1.79 2.00 2.22 2.29 2.13 1.87 1.55 1.43 1.31 1.41 1.57 1.65 1.59 1.49 1.32 1.28 1.19 1.17 1.10 0.98 0.82 0.68 0.60 0.59
0.57 0.59 0.70 0.81 0.87 0.83 0.80 0.89 0.86 0.84 0.84 0.83 0.88 0.88 0.95 0.97 1.03 1.21 1.26 1.48 1.80 2.06 2.16 2.23 2.11 1.80 1.54 1.37 1.17 1.26 1.51 1.72 1.71 1.62 1.62 1.39 1.26 1.12 1.05 1.01 0.94 0.81 0.71
0.47 0.47 0.51 0.58 0.68 0.72 0.93 0.89 0.74 0.70 0.75 0.82 0.87 0.87 0.89 0.83 0.81 0.87 1.01 1.13 1.43 1.64 1.77 1.84 1.87 1.71 1.50 1.37 1.32 1.28 1.35 1.49 1.54 1.42 1.45 1.53 1.47 1.33 1.22 1.10 1.13 1.17 1.08
0.40 0.38 0.37 0.38 0.44 0.60 0.68 0.52 0.51 0.57 0.71 0.83 0.90 0.92 0.89 0.84 0.88 0.89 0.91 0.92 0.99 1.17 1.38 1.57 1.59 1.50 1.55 1.46 1.38 1.28 1.30 1.31 1.30 1.39 1.45 1.50 1.49 1.39 1.32 1.31 1.34 1.24 1.18
0.30 0.29 0.37 0.44 0.46 0.48 0.54 0.44 0.43 0.54 0.73 0.87 0.87 0.83 0.89 0.91 0.94 1.00 0.93 1.00 0.95 0.93 1.02 1.07 1.20 1.40 1.55 1.70 1.67 1.56 1.57 1.52 1.43 1.52 1.52 1.47 1.37 1.29 1.20 1.18 1.24 1.12 1.04
0.34 0.37 0.49 0.56 0.50 0.42 0.46 0.48 0.53 0.68 0.81 0.89 0.86 0.85 0.93 0.97 1.10 1.15 1.06 1.11 1.06 1.03 1.00 1.11 1.20 1.29 1.38 1.49 1.64 1.66 1.62 1.58 1.46 1.40 1.41 1.34 1.24 1.25 1.23 1.11 1.05 1.03 0.94
0.31 0.39 0.41 0.38 0.38 0.44 0.51 0.50 0.63 0.81 0.93 1.03 0.99 0.99 1.17 1.12 1.09 1.05 1.03 1.17 1.14 0.98 0.91 0.96 1.01 1.09 1.12 1.21 1.34 1.38 1.49 1.55 1.46 1.33 1.17 1.15 1.16 1.18 1.22 1.11 0.99 0.92 0.88